Find Firefly 5

NORAD ID: 65322 Int'l Des: 2025-188 Owner: PIXX Country: IN operational
LEOCIRCULARRETROGRADESSO

Live Position

Loading 3D Globe...

About Firefly 5

Description loading...

Upcoming Passes

Passes for default location (London). Set your location on the main map for personalized predictions.

Altitude History

Loading altitude history...

Two-Line Element Set

1 65322U 25188H 26106.68402866 .00000895 00000-0 91748-4 0 9992
2 65322 97.7386 182.9545 0012335 336.2337 23.8311 14.92863041 34738
Epoch: Apr 16, 2026 • Age: 5 hours

Current Status

Altitude 595.2 km
Velocity 7.57 km/s
Sub-Earth Point -37.98°S, 28.1°E
Launch Date Aug 26, 2025
Age 0.6 years
Type other

Technical Details

Classification Payload
Mass 60.00 kg
Dry Mass 60.00 kg
Total Mass 60.00 kg
Length 0.50 m
Diameter 0.30 m
Span 2.00 m
Shape Box + 2 pan
Manufacturer PIXX
Bus Type Firefly
Phase Status In Orbit
Owner/State PIXX/IN

Most Searched